Regional Weather Roundup
Issued by NWS Midland/Odessa, TX

Skip options and go directly to product.
Home | Oldest Version | Next Version | Current Version | All | Text Only | Save Text | Print | Product List | Glossary On

Skip product version selection by date and time.   
337
ASUS44 KMAF 070601
RWRMAF
MIDLAND AREA WEATHER ROUNDUP
NATIONAL WEATHER SERVICE MIDLAND TX
100 AM CDT TUE JUL 07 2015

...IN SOUTHWEST TEXAS AND SOUTHEAST NEW MEXICO...

CITY           SKY/WX    TMP DP  RH WIND       PRES   REMARKS
ALPINE         MOCLDY    72  60  66 SW13      30.12F
ANDREWS        LGT RAIN  73  66  80 CALM      30.03F
ARTESIA        RAIN      70  70 100 N16       30.08F
BIG SPRING     CLOUDY    79  70  74 NE5       30.00R
CARLSBAD       CLOUDY    73  67  81 NW14      30.02R
DRYDEN           N/A     77  68  73 MISG      29.94F
FORT STOCKTON  MOCLDY    75  64  68 S7        29.94F
GUAD PASS        N/A     70  61  73 MISG        N/A
HOBBS          CLOUDY    68  68 100 N10       30.05F
MARFA          MOCLDY   N/A N/A N/A CALM      30.14S
MIDLAND AIRPK  CLOUDY    81  66  61 SE7       29.96S
MIDLAND INTL   CLOUDY    80  65  59 S14       29.95S
ODESSA         MOCLDY    79  61  53 W9        29.99R
PECOS          MOCLDY    82  62  51 NW5       29.91R
PRESIDIO       FAIR      81  65  58 CALM      29.99F
SEMINOLE       RAIN      70  67  92 CALM      30.05F
SNYDER         CLOUDY    72  71  95 E5        29.98F
WINK           CLOUDY    75  67  76 NE15      29.95S
$$
...OTHER STATIONS IN TEXAS...

CITY           SKY/WX    TMP DP  RH WIND       PRES   REMARKS
ABILENE        CLOUDY    82  65  56 S8        29.97F
AMARILLO       LGT RAIN  66  63  90 N17       30.14R
AUSTIN         MOCLDY    77  75  93 S9        30.00F
BROWNSVILLE    MOCLDY    81  78  91 S13       29.97S
CORPUS CHRISTI PTCLDY    82  78  88 S14       29.99R
DALLAS FTW     CLOUDY    83  70  64 S18       29.94F
DEL RIO        CLOUDY    83  69  62 E14G21    29.90S
EL PASO        PTCLDY    88  52  29 W9        29.98R
HOUSTON INT    PTCLDY    81  76  84 S5        30.04F
LUBBOCK        TSTM      68  67  96 N12       30.04F FOG
SAN ANGELO     CLOUDY    82  67  60 SE9       29.95R
SAN ANTONIO    MOCLDY    80  74  81 SE17      30.01R
WACO           MOCLDY    80  72  76 S15       29.99R
WICHITA FALLS  NOT AVBL
$$
...OTHER LOCATIONS IN NEW MEXICO...

CITY           SKY/WX    TMP DP  RH WIND       PRES   REMARKS
ALAMAGORDO     MOCLDY    77  57  50 SW7       30.02R
ALBUQUERQUE    CLOUDY    69  57  65 E26G36    30.18R
CANNON AFB     CLOUDY    65  63  94 NE20G26   30.14S
CLOVIS         CLOUDY    64  63  94 NE17G25     N/A
HOLLOMAN AFB   PTCLDY    81  59  47 SW9       29.99R
ROSWELL        CLOUDY    72  64  76 N15       30.10S
RUIDOSO        LGT RAIN  59  59 100 S8        30.30F
SANTA FE       CLOUDY    63  58  83 NW6       30.27R
TRUTH OR CONSE PTCLDY    73  59  61 N20G26    30.11R
TUCUMCARI      CLOUDY    67  63  87 NE12      30.16S
$$

USA.gov is the U.S. government's official web portal to all federal, state and local government web resources and services.